Regional Weather Roundup
Issued by NWS

Home | Current Version | Previous Version | Text Only | Print | Product List | Glossary On
Versions: 1 2 3 4 5 6 7 8 9 10 11 12 13 14 15 16 17 18 19 20 21 22 23 24 25 26 27 28
000
ASUS44 KJAN 281910
RWRMS

MISSISSIPPI HOURLY WEATHER ROUNDUP
NATIONAL WEATHER SERVICE JACKSON MS
200 PM CDT FRI APR 28 2017

NOTE: "FAIR: INDICATES FEW OR NO CLOUDS BELOW 12,000 FEET WITH NO
SIGNIFICANT WEATHER AND/OR OBSTRUCTIONS TO VISIBILITY.

MSZ001>002-007>008-010>013-018>021-025>028-034>036-282000-
NORTHWEST MISSISSIPPI

CITY           SKY/WX    TMP DP  RH WIND       PRES   REMARKS
BATESVILLE     FAIR      84  72  65 S10G16    29.80F
CLARKSDALE     PTSUNNY   82  77  83 S16G23    29.77F HX  91
CLEVELAND      CLOUDY    83  76  78 S21G30    29.77S HX  91
GREENWOOD      PTSUNNY   86  72  62 S18       29.80R HX  92
GREENVILLE     PTSUNNY   83  71  67 S22G33    29.76F
OLIVE BRANCH   CLOUDY   N/A N/A N/A S9G21     29.79F
OXFORD         FAIR      81  70  69 SE9       29.84F
TUNICA         MOCLDY    79  72  78 S18G24    29.77F
WINONA         CLOUDY    85  71  62 S21G28    29.82R
$$

MSZ003>006-009-014>017-022>024-029>033-037>039-282000-
NORTHEAST MISSISSIPPI

CITY           SKY/WX    TMP DP  RH WIND       PRES   REMARKS
COLUMBUS AFB   MOSUNNY   85  73  67 S16G25    29.85S HX  92
CORINTH        CLOUDY    81  70  69 S12G22    29.85S
STARKVILLE     MOCLDY    84  70  61 S18G28    29.86F
TUPELO         CLOUDY    82  70  66 S15       29.84F
$$

MSZ040-058-282000-
CENTRAL MISSISSIPPI

CITY           SKY/WX    TMP DP  RH WIND       PRES   REMARKS
JACKSON INTL   MOSUNNY   88  69  53 S29G39    29.83S HX  92
JACKSON HAWKNS MOSUNNY   88  69  53 S22G37    29.82S HX  92
MADISON        FAIR      86  70  58 S12G21    29.82S HX  90
MERIDIAN KEY   PTSUNNY   88  70  55 S20G29    29.89F HX  93
MERIDIAN NAS   MOSUNNY   88  68  51 S12G21    29.90S HX  91
RAYMOND        FAIR      88  72  58 S10G32    29.81S HAZE    HX  94
VICKSBURG VKS  PTCLDY    88  72  58 S17       29.76S HX  94
$$

MSZ059>079-282000-
SOUTH MISSISSIPPI

CITY           SKY/WX    TMP DP  RH WIND       PRES   REMARKS
HATTIESBURG    PTSUNNY   84  72  67 S16G24    29.92S
LAUREL         MOCLDY    85  70  60 S17G31    29.91S
MCCOMB         CLOUDY    86  71  60 S21G29    29.86F HX  91
NATCHEZ        PTSUNNY   86  71  60 S24       29.80S HX  91
PINE BELT      CLOUDY    82  72  69 S18G25    29.92S
$$

MSZ080>082-282000-
COASTAL MISSISSIPPI

CITY           SKY/WX    TMP DP  RH WIND       PRES   REMARKS
BAY ST LOUIS   CLOUDY    81  72  74 SE14G21   29.92F
BILOXI         PTSUNNY   81  75  83 S13G18    29.94S
PASCAGOULA     CLOUDY    81  73  76 SE17      29.96S
GULFPORT       CLOUDY    81  75  82 SE16G26   29.94S
$$

LAZ007>009-015>016-023>026-282000-
NORTHEAST LOUISIANA

CITY           SKY/WX    TMP DP  RH WIND       PRES   REMARKS
BASTROP        MOCLDY    87  72  61 S17G23    29.76F HX  93
TALLULAH/VBURG LGT RAIN  87  71  58 S17G25    29.78F HX  93
VIDALIA        MOCLDY    88  71  56 S24G33    29.79S HX  94
$$




USA.gov is the U.S. government's official web portal to all federal, state and local government web resources and services.